EA5DHO-13 Weather Reports


Display with metric or nautical units.
time (UTC)temp
F
wind
direction
speed
MPH
gust
MPH
rain 1hr
in
rain 24hr
in
rain mn
in
humidity
%
barometer
mb
20260902014444 75 260 1.0 2.0 0.00 0.00 0.00 87 1021.9
20260902013441 75 287 2.0 2.0 0.00 0.00 0.00 88 1022.0
20260902012437 75 270 1.0 4.0 0.00 0.00 0.00 88 1021.9
20260902011434 75 270 1.0 4.0 0.00 0.00 0.00 88 1022.1
20260902010431 75 248 1.0 4.0 0.00 0.00 0.00 88 1022.1
20260902005428 76 0.0 2.0 0.00 0.00 0.00 88 1022.1
20260902004424 76 0.0 0.0 0.00 0.00 0.00 87 1022.2
20260902003421 76 0.0 2.0 0.00 0.00 0.00 87 1022.3
20260902002418 76 0.0 0.0 0.00 0.00 0.00 87 1022.2
20260902001415 77 0.0 0.0 0.00 0.00 0.00 87 1022.2
20260902000513 77 0.0 0.0 0.00 0.00 0.00 87 1022.3
20260901235510 77 0.0 0.0 0.00 0.00 0.00 87 1022.3
20260901234505 77 0.0 0.0 0.00 0.00 0.00 87 1022.3
20260901233502 77 0.0 0.0 0.00 0.00 0.00 87 1022.2
20260901232459 77 270 0.0 2.0 0.00 0.00 0.00 87 1022.1
20260901231456 77 270 0.0 2.0 0.00 0.00 0.00 87 1022.1
20260901230453 77 270 1.0 2.0 0.00 0.00 0.00 86 1022.2
20260901225450 77 0.0 2.0 0.00 0.00 0.00 86 1022.2
20260901224446 78 225 0.0 2.0 0.00 0.00 0.00 85 1022.2
20260901223503 78 225 0.0 2.0 0.00 0.00 0.00 85 1022.1
20260901222440 78 0.0 0.0 0.00 0.00 0.00 84 1022.2
20260901221437 78 225 1.0 2.0 0.00 0.00 0.00 84 1022.2
20260901220433 78 225 2.0 2.0 0.00 0.00 0.00 84 1022.2
20260901215430 79 203 2.0 2.0 0.00 0.00 0.00 83 1022.2
20260901214449 79 203 1.0 2.0 0.00 0.00 0.00 83 1022.1
20260901213423 79 203 2.0 2.0 0.00 0.00 0.00 82 1022.1
20260901212501 79 158 0.0 2.0 0.00 0.00 0.00 82 1022.2
20260901211417 79 158 0.0 2.0 0.00 0.00 0.00 82 1022.1
20260901210534 79 158 3.0 4.0 0.00 0.00 0.00 82 1022.1
20260901205512 79 0.0 0.0 0.00 0.00 0.00 82 1022.1
20260901204527 79 158 1.0 2.0 0.00 0.00 0.00 82 1022.1
20260901203504 79 113 0.0 2.0 0.00 0.00 0.00 82 1022.0
20260901202501 79 180 2.0 4.0 0.00 0.00 0.00 82 1021.8
20260901201459 79 135 2.0 4.0 0.00 0.00 0.00 82 1021.7
20260901200454 79 131 1.0 2.0 0.00 0.00 0.00 82 1021.6
20260901195451 79 158 0.0 2.0 0.00 0.00 0.00 82 1021.5
20260901194509 80 103 1.0 4.0 0.00 0.00 0.00 82 1021.5
20260901193445 80 135 0.0 2.0 0.00 0.00 0.00 81 1021.3
20260901192441 80 99 4.0 6.0 0.00 0.00 0.00 80 1021.1
20260901191438 80 0.0 0.0 0.00 0.00 0.00 80 1021.0
20260901190436 80 135 1.0 2.0 0.00 0.00 0.00 80 1020.8
20260901185453 80 80 4.0 4.0 0.00 0.00 0.00 79 1020.8
20260901184428 80 94 2.0 4.0 0.00 0.00 0.00 79 1020.6
20260901183425 80 180 2.0 4.0 0.00 0.00 0.00 79 1020.6
20260901182443 81 135 1.0 4.0 0.00 0.00 0.00 78 1020.7
20260901181419 81 90 2.0 4.0 0.00 0.00 0.00 79 1020.5
20260901180415 80 103 5.0 8.0 0.00 0.00 0.00 79 1020.5
20260901175512 80 113 6.0 8.0 0.00 0.00 0.00 81 1020.6
20260901174509 80 118 6.0 9.0 0.00 0.00 0.00 81 1020.7
20260901173506 80 104 5.0 8.0 0.00 0.00 0.00 81 1020.4
20260901172503 80 90 4.0 7.0 0.00 0.00 0.00 81 1020.6
20260901171500 81 106 6.0 9.0 0.00 0.00 0.00 80 1020.6
20260901170456 81 94 3.0 4.0 0.00 0.00 0.00 80 1020.6
20260901165453 81 82 6.0 8.0 0.00 0.00 0.00 78 1020.6
20260901164450 81 90 5.0 8.0 0.00 0.00 0.00 78 1020.6
20260901163448 82 53 7.0 9.0 0.00 0.00 0.00 75 1020.7
20260901162443 82 135 2.0 6.0 0.00 0.00 0.00 76 1020.6
20260901161440 82 53 7.0 11.0 0.00 0.00 0.00 76 1020.9
20260901160437 82 103 5.0 9.0 0.00 0.00 0.00 76 1020.9
20260901155454 81 68 5.0 9.0 0.00 0.00 0.00 76 1021.0
20260901154430 82 78 6.0 9.0 0.00 0.00 0.00 75 1020.9
20260901153427 81 76 6.0 9.0 0.00 0.00 0.00 73 1021.0
20260901152424 82 114 3.0 4.0 0.00 0.00 0.00 73 1021.4
20260901151442 81 82 1.0 2.0 0.00 0.00 0.00 75 1021.6
20260901150417 81 0.0 2.0 0.00 0.00 0.00 77 1021.7
20260901145514 81 45 7.0 11.0 0.00 0.00 0.00 76 1020.6
20260901144511 82 84 10.0 15.0 0.00 0.00 0.00 69 1020.6
20260901143508 83 103 4.0 6.0 0.00 0.00 0.00 66 1021.0
20260901142505 83 90 5.0 8.0 0.00 0.00 0.00 68 1021.3
20260901141541 83 90 3.0 4.0 0.00 0.00 0.00 70 1021.7
20260901140458 82 117 8.0 14.0 0.00 0.00 0.00 71 1022.1
20260901135456 84 101 5.0 11.0 0.00 0.00 0.00 65 1021.9
20260901134451 84 201 3.0 7.0 0.00 0.00 0.00 66 1022.6
20260901133448 83 83 3.0 8.0 0.00 0.00 0.00 68 1022.5
20260901132445 84 174 5.0 8.0 0.00 0.00 0.00 70 1022.5
20260901131442 82 135 2.0 4.0 0.00 0.00 0.00 75 1022.6
20260901130440 81 68 8.0 11.0 0.00 0.00 0.00 75 1022.3
20260901125456 83 79 4.0 11.0 0.00 0.00 0.00 73 1022.3
20260901124432 83 195 6.0 11.0 0.00 0.00 0.00 74 1022.5
20260901123429 84 203 3.0 7.0 0.00 0.00 0.00 74 1022.5
20260901122426 82 94 3.0 9.0 0.00 0.00 0.00 76 1022.3
20260901121422 82 170 3.0 9.0 0.00 0.00 0.00 74 1022.2
20260901120420 82 113 10.0 15.0 0.00 0.00 0.00 73 1022.4
20260901115417 83 233 4.0 8.0 0.00 0.00 0.00 73 1022.5
20260901114534 83 124 3.0 8.0 0.00 0.00 0.00 74 1022.7
20260901113509 83 72 6.0 11.0 0.00 0.00 0.00 73 1022.6
20260901112506 82 77 7.0 11.0 0.00 0.00 0.00 73 1023.0
20260901111502 83 84 5.0 8.0 0.00 0.00 0.00 73 1023.0
20260901110519 82 97 7.0 11.0 0.00 0.00 0.00 75 1023.1
20260901105456 81 143 8.0 11.0 0.00 0.00 0.00 75 1023.1
20260901104454 82 73 4.0 8.0 0.00 0.00 0.00 77 1022.9
20260901103450 81 68 7.0 14.0 0.00 0.00 0.00 76 1022.9
20260901102446 81 90 10.0 13.0 0.00 0.00 0.00 78 1023.1
20260901101443 81 152 3.0 7.0 0.00 0.00 0.00 77 1023.4
20260901100440 81 90 8.0 11.0 0.00 0.00 0.00 77 1023.2
20260901095437 82 95 3.0 6.0 0.00 0.00 0.00 76 1023.3
20260901094434 81 98 4.0 6.0 0.00 0.00 0.00 77 1023.3
20260901093432 80 113 4.0 8.0 0.00 0.00 0.00 79 1023.4
20260901092447 80 49 4.0 7.0 0.00 0.00 0.00 78 1023.4
20260901091424 81 68 2.0 4.0 0.00 0.00 0.00 78 1023.2
20260901090442 80 90 3.0 6.0 0.00 0.00 0.00 80 1023.2
20260901085418 79 79 3.0 4.0 0.00 0.00 0.00 81 1023.2
20260901084536 80 68 3.0 7.0 0.00 0.00 0.00 79 1023.0
20260901083511 80 49 4.0 7.0 0.00 0.00 0.00 79 1023.0
20260901082509 80 45 5.0 8.0 0.00 0.00 0.00 78 1022.9
20260901081506 81 68 3.0 6.0 0.00 0.00 0.00 77 1022.7
20260901080523 79 30 3.0 6.0 0.00 0.00 0.00 77 1022.7
20260901075459 79 59 6.0 9.0 0.00 0.00 0.00 77 1022.7
20260901074456 79 69 1.0 2.0 0.00 0.00 0.00 77 1022.6
20260901073452 79 68 2.0 2.0 0.00 0.00 0.00 76 1022.7
20260901072418 79 60 2.0 4.0 0.00 0.00 0.00 77 1022.3
20260901071415 78 45 0.0 2.0 0.00 0.00 0.00 77 1022.1
20260901070533 78 0.0 2.0 0.00 0.00 0.00 78 1022.2
20260901065509 78 0.0 0.0 0.00 0.00 0.00 78 1022.1
20260901064506 78 0 0.0 2.0 0.00 0.00 0.00 79 1022.0
20260901063502 78 0 1.0 2.0 0.00 0.00 0.00 79 1021.7
20260901062459 78 338 0.0 2.0 0.00 0.00 0.00 80 1021.8
20260901061457 77 0.0 0.0 0.00 0.00 0.00 81 1021.7
20260901060454 76 0.0 0.0 0.00 0.00 0.00 82 1021.7
20260901055449 76 0.0 0.0 0.00 0.00 0.00 82 1021.6
20260901054446 76 23 0.0 2.0 0.00 0.00 0.00 82 1021.4
20260901053503 76 23 0.0 4.0 0.00 0.00 0.00 82 1021.4
20260901052439 76 0.0 2.0 0.00 0.00 0.00 82 1021.3
20260901051436 76 0.0 2.0 0.00 0.00 0.00 82 1021.3
20260901050433 76 315 1.0 2.0 0.00 0.00 0.00 82 1021.3
20260901045429 76 23 1.0 2.0 0.00 0.00 0.00 82 1021.1
20260901044427 76 315 2.0 4.0 0.00 0.00 0.00 82 1021.5
20260901043424 76 0.0 2.0 0.00 0.00 0.00 83 1021.3
20260901042420 76 0 1.0 2.0 0.00 0.00 0.00 83 1021.6
20260901041417 76 293 2.0 2.0 0.00 0.00 0.00 84 1021.6
20260901040515 76 343 2.0 4.0 0.00 0.00 0.00 84 1021.4
20260901035512 76 45 0.0 2.0 0.00 0.00 0.00 84 1021.2
20260901034507 76 0.0 2.0 0.00 0.00 0.00 85 1021.1
20260901033504 76 0.0 0.0 0.00 0.00 0.00 85 1021.6
20260901032522 76 0.0 0.0 0.00 0.00 0.00 85 1021.5
20260901031538 76 0.0 2.0 0.00 0.00 0.00 85 1021.8
20260901030454 76 0 1.0 2.0 0.00 0.00 0.00 86 1021.6
20260901025451 76 0.0 2.0 0.00 0.00 0.00 86 1021.6
20260901024449 76 23 0.0 2.0 0.00 0.00 0.00 86 1021.7
20260901023606 76 0.0 0.0 0.00 0.00 0.00 86 1021.7
20260901022441 76 38 1.0 2.0 0.00 0.00 0.00 86 1021.8
20260901021438 76 0.0 2.0 0.00 0.00 0.00 86 1021.8
20260901020434 76 0 0.0 2.0 0.00 0.00 0.00 86 1021.9
20260901015451 76 0 0.0 2.0 0.00 0.00 0.00 86 1022.0